Regional Weather Roundup
Issued by NWS Sterling, VA

Home | Current Version | Previous Version | Text Only | Print | Product List | Glossary Off
Versions: 1 2 3 4 5 6 7 8 9 10 11 12 13 14 15 16 17 18 19 20 21 22 23 24 25 26 27 28 29 30 31 32 33 34 35 36 37 38 39 40 41 42 43 44 45 46 47 48 49 50

000
ASUS41 KLWX 220310
RWRLWX

REGIONAL WEATHER ROUNDUP
NATIONAL WEATHER SERVICE BALTIMORE MD/WASHINGTON DC
1000 PM EST SUN DEC 21 2014

Note: "FAIR" indicates few or no clouds below 12,000 feet
with no significant weather and/or obstructions to visibility.
 TC=TEMPERATURE CELSIUS

 * =Non NWS site. Station does not report precipitation (e.g. rain,
    snow, etc.), thunder, or fog.

DCZ001-MDZ009-015-VAZ040>042-051-053>054-220400-
WASHINGTON METRO

CITY           SKY/WX    TMP DP  RH WIND       PRES   REMARKS
WASHINGTON NAT PTCLDY    37  26  64 NE7       30.35R
DULLES         PTCLDY    26  21  81 CALM      30.33R
ANDREWS AFB    PTCLDY    28  23  79 E3        30.32R
FT BELVOIR     CLEAR     27  24  88 CALM      30.34S
QUANTICO       CLEAR     30  25  81 NW7       30.35R
COLLEGE PARK*  CLEAR     30  27  86 CALM      30.34S
LEESBURG*      CLEAR     32  28  86 N3        30.34R
MANASSAS*      CLEAR     25  21  86 CALM      30.33S
GAITHERSBURG*  CLEAR     28  19  69 CALM      30.36R

$$

MDZ006>007-011-014-220400-
BALTIMORE METRO

CITY           SKY/WX    TMP DP  RH WIND       PRES   REMARKS
BWI AIRPORT    PTCLDY    31  22  69 NE5       30.34R
MD SCIENCE CTR   N/A     33  23  66 MISG      30.35R
MARTIN STATE   CLEAR     30  27  86 CALM      30.36S
ANNAPOLIS        N/A     34  25  69 N3        30.34S
FORT MEADE*    CLEAR     27  23  86 CALM      30.37R

$$

MDZ012-015-019>023-220400-
MARYLAND EASTERN SHORE

CITY           SKY/WX    TMP DP  RH WIND       PRES   REMARKS
OCEAN CITY     PTCLDY    26  23  88 CALM      30.33F FOG
SALISBURY      CLEAR     29  23  78 CALM      30.33S
BAY BRIDGE AP*   N/A     32  27  80 NE3       30.35R
CAMBRIDGE*     FAIR      30  27  86 NE3       30.33S
EASTON*        FAIR      31  26  80 CALM      30.38R

$$

MDZ017>025-220400-
SOUTHERN MARYLAND

CITY           SKY/WX    TMP DP  RH WIND       PRES   REMARKS
PATUXENT RIVER PTCLDY    26  21  81 CALM      30.32F
ST INIGOES     PTCLDY    28  23  81 CALM      30.32F
LEONARDTOWN*   PTCLDY    28  27  93 CALM      30.34S

$$

MDZ003>005-220400-
NORTH CENTRAL MARYLAND

CITY           SKY/WX    TMP DP  RH WIND       PRES   REMARKS
FREDERICK*     CLEAR     28  21  74 N3        30.37R
HAGERSTOWN APT CLEAR     28  20  71 E8        30.30S WCI  20
WESTMINSTER*   PTCLDY    27  21  80 CALM      30.31R

$$

MDZ501>502-220400-
WESTERN MARYLAND

CITY           SKY/WX    TMP DP  RH WIND       PRES   REMARKS
OAKLAND*       CLEAR     25 N/A N/A SE15G21   30.13S WCI  12
CUMBERLAND*    CLEAR     32  23  69 CALM      30.32S

$$

VAZ025>031-220400-
SHENANDOAH VALLEY

CITY           SKY/WX    TMP DP  RH WIND       PRES   REMARKS
WINCHESTER*    CLEAR     30  21  69 CALM      30.29S
FRONT ROYAL*   FAIR      30  25  80 NW3       30.28S
LURAY*         FAIR      28  27  93 CALM      30.28R
NEW MARKET*    FAIR      26  23  87 CALM      30.28R
STAUNTON*      CLEAR     28  24  84 CALM      30.27S
WAYNESBORO*    CLOUDY    34  26  73 E3        30.24S

$$

WVZ021-048>050-054>055-220400-
EASTERN WEST VIRGINIA PANHANDLE

CITY           SKY/WX    TMP DP  RH WIND       PRES   REMARKS
MARTINSBURG    CLEAR     29  20  69 CALM      30.32R
PETERSBURG*    CLEAR     27  25  94 CALM      30.27S

$$

VAZ036>039-050-220400-
CENTRAL FOOTHILLS

CITY           SKY/WX    TMP DP  RH WIND       PRES   REMARKS
CHARLOTTESVILL CLOUDY    32  25  75 N3        30.29S
CULPEPER*      CLEAR     27  25  93 CALM      30.32S
ORANGE*        PTCLDY    28  27  93 CALM      30.32S
GORDONSVILLE*  FAIR      26  24  91 CALM      30.30S
WARRENTON*     FAIR      24  24 100 CALM      30.32R

$$

VAZ055>057-220400-
NORTH AND CENTRAL PIEDMONT

CITY           SKY/WX    TMP DP  RH WIND       PRES   REMARKS
FREDERICKSBRG* PTCLDY    28  25  91 CALM      30.33R
STAFFORD*      PTCLDY    26  26 100 CALM      30.38R

$$

NCZ024-NYZ072-PAZ021-071-VAZ022-071-220400-
OTHER REGIONAL OBSERVATIONS

CITY           SKY/WX    TMP DP  RH WIND       PRES   REMARKS
NEW YORK CITY  FLURRIES  34  29  82 N6        30.35F
PHILADELPHIA   CLEAR     34  22  61 VRB3      30.35F
PITTSBURGH     PTCLDY    27  22  81 CALM      30.20F
ROANOKE        CLOUDY    40  30  67 SE7       30.26R
RICHMOND       CLOUDY    36  28  73 NE6       30.30F
RALEIGH        CLOUDY    43  31  62 E7        30.23F

$$

ANZ530>537-220400-
MARINE OBSERVATIONS

STATION/POSITION TIME  TEMP    WIND        PRES
                       AIR SEA DIR/SP/G
                 (UTC) (F)     (DEG/KT/KT) (MB)
THOMAS PT LIGHT  0300   35 41   50/  8/  9 1028.5R
BALT KEY BRIDGE  0300   33      20/  3/  4 1027.6R
COVE POINT       0300   36      80/  7/  8 1026.7S
LEWISETTA        0300   39 41   60/  3/  5 1026.4R
SOLOMONS ISLAND  0300      43                N/A

$$




USA.gov is the U.S. government's official web portal to all federal, state and local government web resources and services.